Torna al catalogo

STARLINK-11725

AttivoComunicazioniVLEO
NORAD 64125·PAYLOAD·🇺🇸 United States

Lanciato May 24, 2025 da Cape Canaveral Space Force Station

Loading…

Prossimi Passaggi (prossime 24 ore)

TLE

AggiornatoSource: CelesTrak SupGP

Epoca: Sep 15, 2026, 03:59 UTC

1 64125C 25111C   26258.16645833 -.00017772  00000+0 -13796-3 0  2589
2 64125  43.0005 271.8402 0001425 258.5261 253.2244 15.70861791    15

Traccia STARLINK-11725 in tempo reale con AllMySat

Download on the App Store